TimeEDT,TemperatureF,Dew PointF,Humidity,Sea Level PressureIn,VisibilityMPH,Wind Direction,Wind SpeedMPH,Gust SpeedMPH,PrecipitationIn,Events,Conditions,WindDirDegrees,DateUTC
12:13 AM,48.4,44.6,87,30.24,10.0,Calm,Calm,-,N/A,,Clear,0,2013-10-15 04:13:00
12:34 AM,48.2,44.6,87,30.23,10.0,Calm,Calm,-,N/A,,Clear,0,2013-10-15 04:34:00
12:53 AM,47.5,43.9,87,30.22,10.0,NE,3.5,-,N/A,,Clear,40,2013-10-15 04:53:00
1:13 AM,47.3,44.1,88,30.22,10.0,Calm,Calm,-,N/A,,Clear,0,2013-10-15 05:13:00
1:34 AM,47.3,44.1,88,30.20,10.0,Calm,Calm,-,N/A,,Clear,0,2013-10-15 05:34:00
1:53 AM,46.9,44.1,90,30.20,10.0,Calm,Calm,-,N/A,,Clear,0,2013-10-15 05:53:00
2:13 AM,44.8,41.5,88,30.20,10.0,Calm,Calm,-,N/A,,Clear,0,2013-10-15 06:13:00
2:34 AM,43.7,41.4,91,30.19,10.0,Calm,Calm,-,N/A,,Clear,0,2013-10-15 06:34:00
2:53 AM,44.4,42.8,94,30.19,10.0,Calm,Calm,-,N/A,,Clear,0,2013-10-15 06:53:00
3:13 AM,42.8,41.0,93,30.18,10.0,Calm,Calm,-,N/A,,Clear,0,2013-10-15 07:13:00
3:34 AM,44.6,43.2,95,30.17,10.0,Calm,Calm,-,N/A,,Clear,0,2013-10-15 07:34:00
3:53 AM,42.1,40.5,94,30.17,7.0,Calm,Calm,-,N/A,,Clear,0,2013-10-15 07:53:00
4:13 AM,43.7,42.1,94,30.17,7.0,Calm,Calm,-,N/A,,Clear,0,2013-10-15 08:13:00
4:34 AM,43.9,42.6,95,30.17,7.0,Calm,Calm,-,N/A,,Clear,0,2013-10-15 08:34:00
4:53 AM,44.2,43.0,95,30.16,5.0,Calm,Calm,-,N/A,,Clear,0,2013-10-15 08:53:00
5:13 AM,41.5,40.3,95,30.16,0.8,Calm,Calm,-,N/A,,Unknown,0,2013-10-15 09:13:00
5:34 AM,42.1,41.0,96,30.16,4.0,Calm,Calm,-,N/A,,Scattered Clouds,0,2013-10-15 09:34:00
5:53 AM,42.6,41.4,95,30.15,1.0,Calm,Calm,-,N/A,,Overcast,0,2013-10-15 09:53:00
6:13 AM,44.8,43.5,95,30.15,10.0,Calm,Calm,-,N/A,,Overcast,0,2013-10-15 10:13:00
6:34 AM,46.4,45.0,95,30.15,10.0,Calm,Calm,-,N/A,,Overcast,0,2013-10-15 10:34:00
6:53 AM,47.1,45.7,95,30.14,10.0,Calm,Calm,-,N/A,,Overcast,0,2013-10-15 10:53:00
7:13 AM,47.8,46.0,93,30.14,10.0,Calm,Calm,-,N/A,,Overcast,0,2013-10-15 11:13:00
7:34 AM,48.2,46.0,92,30.13,7.0,Calm,Calm,-,N/A,,Overcast,0,2013-10-15 11:34:00
7:53 AM,48.4,46.4,93,30.13,5.0,Calm,Calm,-,N/A,,Overcast,0,2013-10-15 11:53:00
8:13 AM,48.4,46.4,93,30.12,7.0,Calm,Calm,-,N/A,,Overcast,0,2013-10-15 12:13:00
8:34 AM,49.5,47.5,93,30.13,3.0,Calm,Calm,-,N/A,,Overcast,0,2013-10-15 12:34:00
8:53 AM,50.0,48.2,94,30.13,2.0,Calm,Calm,-,N/A,,Overcast,0,2013-10-15 12:53:00
9:13 AM,50.4,48.6,94,30.14,1.2,Calm,Calm,-,N/A,,Overcast,0,2013-10-15 13:13:00
9:34 AM,51.1,49.3,94,30.13,1.8,Calm,Calm,-,N/A,,Overcast,0,2013-10-15 13:34:00
9:53 AM,51.3,49.5,94,30.13,1.0,Calm,Calm,-,N/A,,Overcast,0,2013-10-15 13:53:00
10:14 AM,52.0,50.2,94,30.12,0.5,Calm,Calm,-,N/A,,Overcast,0,2013-10-15 14:14:00
10:33 AM,52.7,50.9,94,30.12,1.0,Calm,Calm,-,N/A,,Overcast,0,2013-10-15 14:33:00
10:53 AM,53.4,51.6,94,30.12,1.0,Calm,Calm,-,N/A,,Overcast,0,2013-10-15 14:53:00
11:14 AM,54.5,52.7,94,30.11,1.0,Calm,Calm,-,N/A,,Overcast,0,2013-10-15 15:14:00
11:33 AM,55.4,53.6,94,30.11,0.8,Calm,Calm,-,N/A,,Overcast,0,2013-10-15 15:33:00
11:53 AM,56.3,54.5,94,30.10,0.5,South,3.5,-,N/A,,Overcast,190,2013-10-15 15:53:00
12:14 PM,56.8,55.0,94,30.10,1.8,South,4.6,-,N/A,,Overcast,190,2013-10-15 16:14:00
12:33 PM,57.2,54.9,92,30.10,2.0,SSW,8.1,-,N/A,,Overcast,210,2013-10-15 16:33:00
12:53 PM,57.4,55.4,93,30.09,1.8,SSW,4.6,-,N/A,,Overcast,200,2013-10-15 16:53:00
1:14 PM,58.3,55.9,92,30.08,2.5,SSW,4.6,-,N/A,,Overcast,210,2013-10-15 17:14:00
1:33 PM,58.8,55.9,90,30.06,2.5,South,5.8,-,N/A,,Overcast,180,2013-10-15 17:33:00
1:53 PM,59.5,56.3,89,30.05,2.5,South,5.8,-,N/A,,Overcast,180,2013-10-15 17:53:00
2:14 PM,60.6,56.5,86,30.05,4.0,South,9.2,-,N/A,,Overcast,190,2013-10-15 18:14:00
2:33 PM,61.2,56.7,85,30.05,4.0,SSW,8.1,-,N/A,,Overcast,200,2013-10-15 18:33:00
2:53 PM,62.2,57.2,84,30.03,5.0,SSW,6.9,-,N/A,,Overcast,200,2013-10-15 18:53:00
3:14 PM,63.3,57.6,81,30.03,5.0,South,5.8,-,N/A,,Overcast,190,2013-10-15 19:14:00
3:33 PM,64.2,57.4,78,30.02,7.0,South,6.9,-,N/A,,Overcast,190,2013-10-15 19:33:00
3:53 PM,65.7,57.6,75,30.01,7.0,SE,4.6,-,N/A,,Overcast,130,2013-10-15 19:53:00
4:14 PM,65.7,57.7,76,30.01,7.0,South,3.5,-,N/A,,Mostly Cloudy,180,2013-10-15 20:14:00
4:33 PM,65.8,58.1,76,30.00,10.0,SSE,3.5,-,N/A,,Mostly Cloudy,160,2013-10-15 20:33:00
4:54 PM,66.2,58.1,75,30.00,10.0,SSE,3.5,-,N/A,,Mostly Cloudy,150,2013-10-15 20:54:00
5:13 PM,66.0,58.1,76,29.99,10.0,SSE,3.5,-,N/A,,Scattered Clouds,150,2013-10-15 21:13:00
5:33 PM,65.5,58.1,77,29.99,10.0,SE,3.5,-,N/A,,Clear,140,2013-10-15 21:33:00
5:54 PM,65.5,58.3,77,29.98,10.0,Calm,Calm,-,N/A,,Clear,0,2013-10-15 21:54:00
6:13 PM,65.3,58.1,77,29.97,10.0,Calm,Calm,-,N/A,,Clear,0,2013-10-15 22:13:00
6:33 PM,65.3,58.3,78,29.96,10.0,Calm,Calm,-,N/A,,Clear,0,2013-10-15 22:33:00
6:54 PM,65.3,58.3,78,29.96,10.0,South,5.8,-,N/A,,Mostly Cloudy,170,2013-10-15 22:54:00
7:13 PM,65.1,58.3,78,29.96,10.0,South,5.8,-,N/A,,Mostly Cloudy,180,2013-10-15 23:13:00
7:33 PM,65.3,58.5,78,29.96,10.0,South,9.2,-,N/A,,Overcast,190,2013-10-15 23:33:00
7:54 PM,65.5,58.6,79,29.95,10.0,South,10.4,-,N/A,,Overcast,180,2013-10-15 23:54:00
8:13 PM,65.7,58.8,79,29.96,10.0,South,9.2,-,N/A,,Overcast,190,2013-10-16 00:13:00
8:33 PM,65.5,59.0,80,29.96,10.0,SSW,8.1,-,N/A,,Overcast,200,2013-10-16 00:33:00
8:54 PM,65.3,59.0,80,29.96,10.0,SSW,5.8,-,N/A,,Overcast,210,2013-10-16 00:54:00
9:13 PM,64.6,59.0,82,29.96,10.0,WSW,4.6,-,N/A,,Overcast,240,2013-10-16 01:13:00
9:33 PM,63.9,59.0,84,29.96,5.0,South,4.6,-,N/A,,Overcast,190,2013-10-16 01:33:00
9:53 PM,63.5,59.0,85,29.96,10.0,SSW,4.6,-,N/A,,Overcast,210,2013-10-16 01:53:00
10:13 PM,63.1,59.0,86,29.96,10.0,SW,4.6,-,N/A,,Overcast,220,2013-10-16 02:13:00
10:34 PM,63.7,59.0,85,29.96,10.0,SSW,6.9,-,N/A,,Overcast,200,2013-10-16 02:34:00
10:53 PM,63.5,59.0,85,29.96,10.0,SW,4.6,-,N/A,,Overcast,230,2013-10-16 02:53:00
11:13 PM,63.1,59.0,86,29.96,10.0,SSW,5.8,-,N/A,,Overcast,200,2013-10-16 03:13:00
11:34 PM,62.6,58.8,87,29.97,10.0,SW,4.6,-,N/A,,Overcast,220,2013-10-16 03:34:00
11:53 PM,63.1,58.8,86,29.96,10.0,SSW,5.8,-,N/A,,Overcast,210,2013-10-16 03:53:00